sat.trackr.live / text

‹ back to catalog

ONEWEB-0231

NORAD 48782 · 2021-045R

PAYLOAD ACTIVE UNKNOWN

§ Identity

Operator
Country
UK
Launch date
2021-05-28
Launch site
VOSTO
Launch vehicle
Mass (kg)
RCS (m²)

Purposes: comms

External: N2YO · Heavens-Above · Gunter

§ Orbital elements

Epoch: 2026-09-12T23:16:27.607008Z

Period
109.46 min
Inclination
87.8980°
Eccentricity
0.0002010
Mean motion
13.15547997 rev/d
Perigee alt
1,200.2 km
Apogee alt
1,203.3 km
Semi-major
7,579.9 km
B*
2.2577e-4
RAAN
241.6962°
Arg perigee
78.5348°
Mean anomaly
281.6008°
Rev number
25,588

§ Raw data

ONEWEB-02311 48782U 21045R   26255.96976397  .00000098  00000+0  22577-3 0  99992 48782  87.8980 241.6962 0002010  78.5348 281.6008 13.15547997255883

JSON: /api/v1/satellites/48782 · /tle

For live sub-satellite position, see the globe view (requires WebGL).

§ Visibility from observer

Set your observer location to see the next 7 days of passes ≥ 10°. The values pass through the URL so the page stays shareable.

No JS? Fill the form by hand. The geolocation button needs JavaScript.